RH
100 100 80 98 100 82 87 100 100 100 100 100 100 100 100 98 100 97 90 83 88 98 95 90 89 91 100 99 90 90 93 83 71 77 71 72 71 65 58 62 74 100 100
100 100 85 100 97 95 81 100 100 100 100 100 82 82 89 98 100 100 100 97 99 92 80 80 77 83 81 84 90 95 90 88 81 75 87 76 62 60 57 54 59 66 90
100 100 100 100 89 100 95 84 100 99 94 69 55 69 78 95 100 85 71 68 83 82 90 96 88 75 75 82 95 87 86 93 84 81 71 68 75 86 87 67 62 57 52
100 99 100 100 100 100 91 62 60 60 59 70 79 88 98 100 91 91 85 93 100 92 87 95 85 95 94 90 80 74 90 86 78 65 69 78 84 91 87 90 72 51 46
100 100 100 100 100 100 100 100 100 100 100 100 100 99 87 86 73 79 96 95 94 100 95 70 69 68 73 77 85 87 84 84 93 84 82 82 92 100 98 90 69 62 50
100 100 100 100 100 100 100 100 98 76 83 100 100 96 84 96 83 85 86 97 100 88 92 78 69 66 74 79 85 92 98 94 85 70 67 61 54 67 65 57 44 50 50
98 100 100 100 96 100 100 100 100 100 100 100 100 100 100 100 88 99 79 91 100 100 100 90 88 90 78 82 87 85 78 75 44 35 38 30 31 28 32 35 29 26 31
100 100 100 100 100 100 100 100 100 100 100 100 100 100 100 100 100 98 100 100 100 97 89 97 98 99 84 99 97 82 66 49 33 26 33 34 27 26 24 22 24 23 21
100 100 100 99 100 100 100 100 100 100 100 100 100 100 100 100 99 97 88 97 84 89 80 88 81 80 71 65 93 73 39 36 34 30 25 24 24 23 23 23 24 25 28
100 100 100 100 100 100 100 100 100 100 100 100 100 96 79 84 88 80 64 76 86 89 74 73 80 58 36 36 60 75 41 26 25 27 26 23 22 22 22 22 23 24 24
100 100 100 100 100 100 100 100 100 100 100 100 100 100 89 76 68 79 90 88 68 66 66 67 63 44 52 47 33 36 30 28 25 24 22 22 21 21 20 20 21 21 19
100 100 100 100 100 100 100 100 100 100 100 100 100 100 100 100 98 90 86 71 55 67 76 76 69 56 55 42 30 28 25 25 26 23 20 19 18 20 20 19 18 18 18
100 100 100 100 100 100 100 100 100 100 100 100 100 100 100 100 84 62 58 74 75 80 74 54 46 37 35 34 26 23 22 23 22 21 20 20 20 19 18 18 17 16 16
100 100 100 100 100 100 100 100 100 100 98 87 74 66 69 76 70 89 94 66 57 51 50 39 34 31 30 27 23 20 19 19 19 20 20 18 16 15 15 15 14 14 14
100 100 100 100 98 88 80 90 94 86 82 76 66 59 76 86 75 54 54 48 43 44 47 54 44 37 33 28 25 22 20 18 15 14 12 11 10 10 10 10 9 9 9
100 100 100 100 100 100 100 89 88 87 80 64 71 84 84 62 52 42 42 49 53 57 38 30 27 24 19 17 16 15 12 10 9 8 7 6 6 6 6 7 8 9 9
100 100 97 100 100 100 94 89 88 76 55 66 65 62 64 45 48 45 50 50 35 26 17 14 14 14 12 10 9 7 6 5 5 5 5 6 6 6 6 6 7 8 9
100 100 98 89 96 96 94 86 69 65 73 74 53 48 47 50 43 48 41 27 19 14 12 11 10 8 6 5 5 5 5 5 5 4 4 4 4 4 5 5 5 6 6
100 100 100 100 90 87 86 78 65 63 54 49 47 50 41 47 48 39 24 18 15 12 10 8 6 5 5 4 4 4 3 3 4 4 4 4 4 4 4 4 5 5 5
100 100 100 100 100 98 94 86 73 62 69 58 43 47 55 52 36 21 16 14 13 9 7 6 5 4 3 3 3 3 3 3 2 2 3 3 3 3 3 4 4 4 5
100 100 100 100 100 80 75 66 67 46 44 46 52 58 49 31 21 15 15 10 8 7 5 4 3 3 3 3 3 2 2 2 2 2 3 3 3 3 3 3 4 4 5
99 99 98 93 80 86 81 59 52 51 52 56 58 44 26 16 16 12 8 8 6 4 4 4 3 3 3 3 3 2 2 2 2 2 3 3 3 3 3 3 4 4 5
100 100 100 99 84 72 57 50 53 56 58 52 42 26 21 17 10 8 7 5 4 4 3 3 3 3 3 3 2 2 2 2 2 2 3 3 3 3 3 3 4 4 4
100 95 84 69 56 49 52 55 54 64 60 38 24 21 15 9 9 6 5 4 4 3 3 3 3 2 2 2 2 2 2 2 2 2 3 3 3 3 4 4 4 4 5
67 61 61 63 58 57 60 64 67 47 27 28 21 12 9 9 6 5 4 4 3 3 3 3 2 2 2 2 2 2 2 3 3 3 3 3 3 4 4 4 4 5 6
65 66 64 63 59 68 73 49 30 29 26 18 11 10 10 7 5 5 4 3 3 3 3 2 2 2 2 2 2 2 2 3 3 3 3 4 4 4 4 5 5 6 6
Wind_Speed
66 63 53 41 43 47 45 51 61 65 69 69 71 73 77 78 77 79 79 80 80 79 78 78 76 74 73 72 73 73 71 70 66 68 73 72 75 78 82 80 79 74 76
61 60 40 49 58 60 57 62 59 69 71 74 76 73 74 76 79 77 77 78 80 80 79 77 74 73 75 75 74 72 75 71 70 68 71 70 67 68 67 68 72 76 79
57 50 46 62 63 63 62 62 65 68 72 79 80 77 76 77 78 82 81 77 75 78 80 79 75 74 73 74 74 73 73 74 70 66 67 67 68 70 76 71 72 78 81
54 54 48 59 63 71 81 77 85 83 86 81 78 75 78 81 83 79 77 76 76 78 77 75 74 75 74 75 74 73 71 70 69 67 67 67 69 74 77 79 77 77 79
67 68 61 59 61 64 54 66 70 71 72 75 75 77 83 78 81 74 75 76 77 76 76 77 75 74 73 73 73 72 71 71 73 74 72 73 72 74 77 78 75 75 78
68 74 77 67 74 79 75 82 87 89 89 92 88 82 79 85 85 74 76 77 79 81 81 81 77 77 76 73 74 74 76 76 75 74 72 72 71 75 77 77 76 75 79
78 76 81 87 86 91 90 90 90 92 91 88 81 82 85 87 84 81 85 87 83 85 83 82 79 79 80 76 73 72 72 73 74 75 74 73 74 75 77 77 77 78 80
76 78 78 93 87 89 91 93 88 88 87 83 87 87 92 93 88 87 91 90 88 89 89 87 87 86 83 78 75 78 78 78 77 75 75 76 76 78 79 82 85 87 88
76 81 83 82 84 86 89 89 89 88 87 89 89 90 91 91 89 90 93 94 95 96 95 90 90 88 86 82 82 85 85 82 81 80 81 83 84 85 84 85 85 87 90
75 77 77 79 80 80 81 85 86 87 86 90 92 95 91 96 98 98 99 99 98 96 94 94 95 88 86 86 86 88 89 87 84 83 85 86 87 89 90 91 92 95 96
67 68 70 74 75 73 77 80 87 88 85 89 94 97 100 100 100 103 103 104 103 102 101 99 99 93 91 94 93 92 91 88 86 87 90 91 91 92 94 96 98 99 98
67 69 65 70 72 74 76 77 80 86 88 91 94 93 100 104 107 107 106 106 103 104 105 103 101 101 99 97 97 97 93 90 91 95 97 98 98 99 100 101 101 97 93
65 60 57 58 69 74 76 76 83 87 91 94 95 95 99 101 103 102 101 103 104 104 102 100 99 99 97 98 98 95 95 96 98 100 102 104 106 106 104 100 97 94 91
45 55 53 65 69 68 68 73 78 80 85 92 92 94 96 99 100 102 103 104 101 99 98 98 99 97 96 94 96 98 100 101 102 103 106 106 106 102 98 96 93 92 91
50 58 57 65 67 69 71 76 81 86 88 91 94 94 96 92 92 100 97 97 92 102 108 109 104 102 100 100 102 104 106 107 106 103 100 98 96 93 91 89 86 84 81
61 61 61 65 73 74 79 79 82 84 87 90 92 92 96 101 98 98 100 100 109 116 106 94 94 96 98 101 103 103 103 101 100 99 96 92 87 83 78 74 72 70 67
61 62 66 70 76 79 84 85 84 83 87 90 91 94 99 99 100 102 105 105 99 93 95 94 94 94 95 96 96 97 96 95 90 86 82 80 77 75 71 69 68 66 65
69 71 76 77 76 79 82 83 85 86 90 94 95 98 98 99 101 105 99 97 96 96 92 91 93 94 93 90 88 85 83 81 78 74 70 68 66 64 63 61 61 60 59
64 69 73 75 76 78 83 83 87 89 93 95 95 98 98 103 105 104 99 95 95 95 97 96 92 88 85 81 75 70 67 62 58 55 53 52 52 53 54 54 53 53 51
69 73 77 80 81 85 88 92 94 95 99 101 99 96 103 106 104 99 96 96 97 96 91 87 84 78 71 66 61 56 51 48 45 43 42 42 42 43 43 42 42 41 41
70 75 77 81 82 89 94 95 99 94 89 98 102 100 101 98 95 93 94 93 88 85 82 77 71 66 61 57 54 51 47 44 41 39 37 36 36 37 37 35 33 32 32
74 77 78 83 86 89 96 97 99 99 99 100 103 102 95 90 91 91 86 80 77 73 71 67 63 60 56 52 48 45 43 40 37 34 32 31 31 30 29 29 29 27 26
76 79 82 85 92 96 100 93 91 90 91 98 98 94 93 92 87 81 77 72 69 66 62 60 56 53 49 46 43 40 38 35 32 30 27 26 26 25 25 24 24 23 23
79 83 86 89 90 86 86 91 95 103 107 94 87 89 89 82 76 74 70 65 60 58 55 52 49 46 43 40 37 35 33 30 28 26 24 22 21 21 21 21 21 22 21
78 81 83 89 87 89 95 98 103 91 84 87 87 83 76 74 71 67 61 56 54 51 48 45 42 40 37 34 32 29 27 25 24 21 20 18 17 17 17 17 19 19 20
75 81 86 88 90 98 100 90 81 80 84 82 78 74 74 71 65 59 56 53 50 46 44 41 37 34 31 29 26 24 22 21 20 17 16 15 14 14 14 15 16 18 20
Wind_Direction
266 268 268 272 277 278 271 259 256 260 269 272 274 279 284 284 281 280 282 284 285 285 286 285 285 285 283 284 285 284 282 283 278 276 277 274 270 272 271 270 271 267 268
260 267 267 256 268 272 267 257 258 259 264 273 280 282 283 283 281 281 283 285 285 286 287 286 288 288 288 289 288 285 287 286 286 284 280 277 273 271 272 269 270 266 264
258 254 238 255 261 267 266 259 262 263 271 277 277 282 283 282 283 286 285 287 288 288 289 292 294 294 294 292 291 289 288 287 287 285 282 279 278 275 276 277 277 274 269
243 242 252 258 262 260 263 261 263 267 271 273 279 281 283 279 283 285 285 288 288 289 293 296 295 294 293 291 290 292 290 288 289 288 285 281 277 273 273 275 279 275 273
234 239 246 245 253 254 250 262 265 265 267 273 276 279 282 281 284 285 286 286 289 290 291 294 295 296 294 293 294 293 292 291 289 286 283 279 274 272 273 273 275 273 271
230 234 239 243 240 248 255 257 264 265 271 276 281 281 280 284 288 284 285 287 287 289 292 293 296 296 295 294 293 292 291 289 287 284 280 278 276 272 272 273 275 272 269
230 230 239 240 244 245 254 258 261 266 272 275 275 272 274 281 284 281 283 286 286 288 291 295 296 296 297 294 291 290 289 288 287 287 284 280 279 279 277 276 276 275 272
232 233 233 240 245 250 253 258 262 266 268 270 268 268 271 277 280 282 282 284 285 287 290 292 292 294 293 291 290 289 289 288 286 284 283 283 282 281 280 279 278 279 281
232 233 236 244 246 250 253 257 261 264 266 268 269 271 271 273 277 279 281 282 286 289 289 291 294 290 289 289 287 288 290 288 288 289 288 286 285 283 282 282 281 281 281
234 239 241 244 250 253 256 258 261 261 263 264 264 267 268 270 274 278 282 287 290 289 289 289 293 290 290 289 286 285 286 286 287 287 287 284 282 281 282 282 281 281 280
245 247 251 252 255 258 260 261 259 261 263 263 264 266 271 275 281 282 283 286 287 288 293 293 290 289 290 290 287 284 285 285 286 287 285 284 282 280 279 279 280 281 281
244 249 253 257 260 260 261 263 261 258 260 267 271 273 275 277 279 283 284 287 289 293 293 292 290 289 290 289 287 287 287 287 286 285 285 284 283 282 281 281 282 282 282
245 251 255 262 262 259 260 263 262 262 264 266 269 273 275 277 281 285 288 290 291 291 290 289 289 288 287 285 285 285 285 286 286 285 284 283 282 282 283 282 282 282 282
249 253 249 251 261 260 261 262 263 264 267 270 272 276 279 281 283 287 288 291 293 291 296 294 291 290 288 286 284 285 285 285 283 282 282 282 282 282 282 282 281 281 281
243 249 246 251 257 261 264 266 269 270 271 274 279 278 281 282 284 288 289 293 295 299 299 298 293 291 290 289 288 287 285 284 283 283 283 282 281 281 281 281 279 279 278
242 245 252 255 258 261 264 267 269 270 273 277 277 280 279 282 289 294 298 295 295 294 293 291 288 286 285 284 284 285 285 285 285 286 286 285 283 281 279 277 274 273 272
243 246 252 254 257 260 264 267 271 271 275 275 277 280 283 289 296 298 296 295 293 292 292 290 290 289 288 288 288 288 288 288 287 286 284 282 280 277 275 271 268 267 266
244 248 256 260 261 263 266 269 272 275 275 276 281 287 292 293 294 299 296 297 296 297 297 295 295 293 292 292 291 290 288 286 285 283 281 278 276 273 271 268 266 264 263
243 248 253 257 261 265 269 271 274 276 280 283 294 296 295 299 302 302 300 299 301 301 300 299 298 297 296 295 292 290 288 286 284 281 278 276 273 271 269 267 265 264 263
247 252 256 261 267 271 274 277 279 282 285 291 297 299 304 305 304 303 304 305 304 303 301 299 299 299 298 298 296 295 292 290 286 283 279 275 272 270 269 268 266 263 260
251 255 259 263 268 272 276 281 284 290 296 301 303 306 306 303 303 305 306 305 304 303 302 302 303 303 303 302 301 299 297 294 290 286 281 276 271 267 266 265 262 258 254
256 261 266 270 274 278 280 285 288 294 298 301 306 306 305 306 307 308 307 306 306 305 305 305 306 305 304 303 302 300 298 295 292 288 282 275 270 267 263 260 256 252 249
258 262 267 271 275 279 284 294 299 303 306 307 306 306 308 310 310 311 311 310 309 308 308 307 307 306 305 303 301 300 297 294 291 287 282 275 269 262 257 253 250 245 241
261 266 270 274 282 291 293 301 306 309 306 305 308 310 311 311 315 315 314 312 311 311 310 310 309 307 306 304 302 298 295 292 287 284 279 274 266 259 252 247 242 237 234
268 272 276 281 291 296 301 304 304 306 307 310 311 311 314 318 319 318 316 316 316 315 314 312 311 309 307 304 301 298 293 290 286 281 276 269 261 253 246 238 232 225 221
277 279 283 292 300 306 306 304 306 310 311 312 314 318 321 322 321 322 321 321 320 318 317 315 313 310 307 305 302 299 291 286 283 279 273 262 251 242 232 225 218 213 211